Weather History for KCKC - February, 2014

Change the Weather History Date:

Friday, February 14, 2014

  Actual Average (WUND) Record (WUND)
Temperature  
Mean Temperature -2 °F -  
Max Temperature 6 °F - - (-1)
Min Temperature -11 °F - - (-1)
Degree Days  
Heating Degree Days 68    
Moisture  
Dew Point -11 °F    
Average Humidity 69    
Maximum Humidity 78    
Minimum Humidity 56    
Precipitation  
Precipitation 0.00 in - - ()
Sea Level Pressure  
Sea Level Pressure 29.74 in    
Wind  
Wind Speed 11 mph (NNW)    
Max Wind Speed 20 mph    
Max Gust Speed 26 mph    
Visibility 9 miles    
Events Snow    
Averages and records for this station are not official NWS values.
T = Trace of Precipitation, MM = Missing Value Source: NWS Daily Summary

Daily Weather History Graph

Daily Weather History Graph

Search for Another Location

Airport or City:

Trip Planner

Search our weather history database for the weather conditions in past years. The results will help you decide how hot, cold, wet, or windy it might be!

Date:

Astronomy

Feb. 14, 2014 Rise Set
Actual Time 7:09 AM CST 5:22 PM CST
Civil Twilight 6:37 AM CST 5:54 PM CST
Nautical Twilight 6:01 AM CST 6:31 PM CST
Astronomical Twilight 5:25 AM CST 7:06 PM CST
Moon 5:30 PM CST (2/14) 6:33 AM CST (2/14)
Length of Visible Light 11h 17m
Length of Day
10h 13m
Full, 100% of the Moon is Illuminated
Feb 14
Full
Feb 14
Full
Feb 22
Last Quarter
Mar 1
New
Mar 8
First Quarter

Hourly Weather History & Observations

Time (CST) Temp. Windchill Dew Point Humidity Pressure Visibility Wind Dir Wind Speed Gust Speed Precip Events Conditions
12:13 AM -4.0 °F -23.7 °F -9.4 °F 78% 29.56 in 10.0 mi NNW 13.8 mph 20.7 mph N/A   Scattered Clouds
12:33 AM -4.0 °F -24.5 °F -11.2 °F 71% 29.57 in 10.0 mi NNW 15.0 mph 19.6 mph N/A   Scattered Clouds
12:54 AM -5.8 °F -24.4 °F -11.2 °F 77% 29.57 in 10.0 mi NNW 11.5 mph 18.4 mph N/A   Scattered Clouds
1:13 AM -5.8 °F -25.2 °F -11.2 °F 77% 29.58 in 10.0 mi NNW 12.7 mph - N/A   Scattered Clouds
1:33 AM -5.8 °F -22.4 °F -11.2 °F 77% 29.59 in 10.0 mi NNW 9.2 mph - N/A   Scattered Clouds
1:54 AM -5.8 °F -16.7 °F -11.2 °F 77% 29.60 in 10.0 mi NNW 4.6 mph - N/A   Clear
2:13 AM -5.8 °F -18.4 °F -13.0 °F 71% 29.60 in 10.0 mi NNW 5.8 mph - N/A   Clear
2:34 AM -7.6 °F -23.4 °F -13.0 °F 77% 29.61 in 10.0 mi NNW 8.1 mph - N/A   Scattered Clouds
2:54 AM -7.6 °F -22.1 °F -14.8 °F 71% 29.60 in 10.0 mi NNW 6.9 mph - N/A   Clear
3:13 AM -7.6 °F -22.1 °F -14.8 °F 71% 29.60 in 10.0 mi NW 6.9 mph - N/A   Clear
3:34 AM -7.6 °F -27.5 °F -14.8 °F 71% 29.60 in 10.0 mi NNW 12.7 mph 18.4 mph N/A   Clear
3:54 AM -7.6 °F -25.7 °F -14.8 °F 71% 29.61 in 10.0 mi NNW 10.4 mph 16.1 mph N/A   Scattered Clouds
4:13 AM -9.4 °F -28.9 °F -14.8 °F 77% 29.61 in 10.0 mi NNW 11.5 mph - N/A   Scattered Clouds
4:33 AM -9.4 °F -29.8 °F -14.8 °F 77% 29.62 in 10.0 mi NNW 12.7 mph 16.1 mph N/A   Scattered Clouds
4:53 AM -9.4 °F -30.6 °F -16.6 °F 71% 29.62 in 10.0 mi NNW 13.8 mph 19.6 mph N/A   Scattered Clouds
5:13 AM -9.4 °F -31.4 °F -16.6 °F 71% 29.63 in 10.0 mi NNW 15.0 mph - N/A   Clear
5:34 AM -9.4 °F -32.8 °F -16.6 °F 71% 29.63 in 10.0 mi NNW 17.3 mph - N/A   Clear
5:54 AM -9.4 °F -34.1 °F -16.6 °F 71% 29.63 in 10.0 mi North 19.6 mph 24.2 mph N/A   Clear
6:13 AM -9.4 °F -32.1 °F -16.6 °F 71% 29.64 in 10.0 mi NNW 16.1 mph 23.0 mph N/A   Scattered Clouds
6:33 AM -11.2 °F -33.7 °F -18.4 °F 70% 29.64 in 10.0 mi NNW 15.0 mph 23.0 mph N/A   Scattered Clouds
6:53 AM -11.2 °F -35.2 °F -18.4 °F 70% 29.65 in 7.0 mi NNW 17.3 mph 24.2 mph N/A   Scattered Clouds
7:13 AM -11.2 °F -35.8 °F -18.4 °F 70% 29.66 in 7.0 mi North 18.4 mph 25.3 mph N/A   Scattered Clouds
7:34 AM -11.2 °F -34.4 °F -18.4 °F 70% 29.66 in 10.0 mi NNW 16.1 mph 23.0 mph N/A   Clear
7:53 AM -9.4 °F -34.1 °F -16.6 °F 71% 29.67 in 5.0 mi NNW 19.6 mph - N/A Snow Light Snow
8:14 AM -9.4 °F -33.5 °F -16.6 °F 71% 29.67 in 5.0 mi North 18.4 mph 26.5 mph N/A Snow Snow
8:33 AM -9.4 °F -34.1 °F -16.6 °F 71% 29.68 in 4.0 mi NNW 19.6 mph 25.3 mph N/A Snow Light Snow
8:54 AM -7.6 °F -28.3 °F -16.6 °F 65% 29.70 in 3.0 mi NNW 13.8 mph 24.2 mph N/A Snow Light Snow
9:14 AM -5.8 °F -24.4 °F -14.8 °F 65% 29.72 in 10.0 mi NNW 11.5 mph - N/A   Clear
9:33 AM -5.8 °F -22.4 °F -14.8 °F 65% 29.72 in 7.0 mi NNW 9.2 mph 17.3 mph N/A Snow Light Snow
9:53 AM -5.8 °F -25.2 °F -14.8 °F 65% 29.73 in 10.0 mi NNW 12.7 mph 16.1 mph N/A   Clear
10:14 AM -2.2 °F -20.7 °F -13.0 °F 60% 29.73 in 7.0 mi NNW 12.7 mph 17.3 mph N/A   Clear
10:34 AM -0.4 °F -14.7 °F -11.2 °F 60% 29.74 in 7.0 mi NW 8.1 mph - N/A   Clear
10:54 AM -0.4 °F -15.7 °F -11.2 °F 60% 29.75 in 10.0 mi NNW 9.2 mph - N/A   Clear
11:14 AM 1.4 °F -12.5 °F -9.4 °F 61% 29.76 in 10.0 mi NW 8.1 mph - N/A   Clear
11:34 AM 1.4 °F -15.3 °F -9.4 °F 61% 29.76 in 10.0 mi NNW 11.5 mph - N/A   Clear
11:53 AM 1.4 °F -13.5 °F -9.4 °F 61% 29.76 in 10.0 mi NNW 9.2 mph - N/A   Clear
12:14 PM 3.2 °F -7.8 °F -7.6 °F 61% 29.76 in 10.0 mi NW 5.8 mph 9.2 mph N/A   Clear
12:33 PM 3.2 °F -11.3 °F -7.6 °F 61% 29.76 in 10.0 mi NW 9.2 mph - N/A   Clear
12:53 PM 5.0 °F -10.0 °F -7.6 °F 56% 29.76 in 10.0 mi NNW 10.4 mph - N/A   Clear
1:14 PM 5.0 °F -10.0 °F -5.8 °F 61% 29.76 in 10.0 mi NNW 10.4 mph 17.3 mph N/A   Clear
1:33 PM 5.0 °F -10.8 °F -5.8 °F 61% 29.76 in 10.0 mi NNW 11.5 mph - N/A Snow Light Snow
1:53 PM 6.8 °F -8.6 °F -5.8 °F 56% 29.76 in 10.0 mi NW 11.5 mph 17.3 mph N/A   Clear
2:14 PM 6.8 °F -5.9 °F -5.8 °F 56% 29.76 in 10.0 mi NW 8.1 mph 17.3 mph N/A   Clear
2:34 PM 6.8 °F -12.4 °F -5.8 °F 56% 29.77 in 4.0 mi NNW 18.4 mph - N/A Snow Light Snow
2:53 PM 6.8 °F -9.3 °F -4.0 °F 61% 29.78 in 10.0 mi NNW 12.7 mph - N/A Snow Light Snow
3:13 PM 6.8 °F -10.0 °F -4.0 °F 61% 29.79 in 10.0 mi NNW 13.8 mph 17.3 mph N/A Snow Light Snow
3:34 PM 6.8 °F -10.0 °F -4.0 °F 61% 29.79 in 10.0 mi NNW 13.8 mph - N/A   Scattered Clouds
3:53 PM 6.8 °F -10.0 °F -4.0 °F 61% 29.80 in 10.0 mi NNW 13.8 mph 18.4 mph N/A   Clear
4:14 PM 6.8 °F -5.9 °F -4.0 °F 61% 29.81 in 10.0 mi NW 8.1 mph 16.1 mph N/A   Clear
4:34 PM 5.0 °F -10.8 °F -4.0 °F 66% 29.83 in 10.0 mi NNW 11.5 mph - N/A   Clear
4:53 PM 5.0 °F -9.1 °F -4.0 °F 66% 29.83 in 10.0 mi North 9.2 mph - N/A   Clear
5:14 PM 3.2 °F -7.8 °F -4.0 °F 72% 29.84 in 10.0 mi NNW 5.8 mph - N/A   Clear
5:33 PM 3.2 °F -7.8 °F -4.0 °F 72% 29.85 in 10.0 mi NNW 5.8 mph - N/A   Scattered Clouds
5:54 PM 1.4 °F -6.2 °F -5.8 °F 72% 29.86 in 10.0 mi NNW 3.5 mph - N/A   Scattered Clouds
6:13 PM 1.4 °F -8.3 °F -5.8 °F 72% 29.86 in 10.0 mi NNW 4.6 mph - N/A   Clear
6:34 PM -0.4 °F -10.4 °F -5.8 °F 78% 29.86 in 10.0 mi NNW 4.6 mph - N/A   Scattered Clouds
6:53 PM -0.4 °F -10.4 °F -5.8 °F 78% 29.86 in 7.0 mi North 4.6 mph - N/A   Scattered Clouds
7:13 PM -0.4 °F -15.7 °F -5.8 °F 78% 29.85 in 10.0 mi North 9.2 mph - N/A   Scattered Clouds
7:34 PM -2.2 °F -18.0 °F -7.6 °F 78% 29.85 in 10.0 mi NNW 9.2 mph - N/A   Scattered Clouds
7:53 PM -0.4 °F -15.7 °F -7.6 °F 72% 29.84 in 10.0 mi NNW 9.2 mph - N/A   Clear
8:13 PM -0.4 °F -16.7 °F -7.6 °F 72% 29.85 in 10.0 mi NNW 10.4 mph - N/A   Scattered Clouds
8:34 PM -0.4 °F -17.6 °F -7.6 °F 72% 29.84 in 10.0 mi North 11.5 mph - N/A   Scattered Clouds
8:54 PM -0.4 °F -13.4 °F -7.6 °F 72% 29.84 in 10.0 mi North 6.9 mph - N/A   Scattered Clouds
9:13 PM -2.2 °F - -9.4 °F 71% 29.86 in 10.0 mi Calm Calm - N/A   Clear
9:34 PM -2.2 °F - -7.6 °F 78% 29.86 in 10.0 mi Calm Calm - N/A   Clear
9:53 PM -2.2 °F - -7.6 °F 78% 29.86 in 10.0 mi Calm Calm - N/A   Scattered Clouds
10:13 PM -7.6 °F - -13.0 °F 77% 29.85 in 10.0 mi Calm Calm - N/A   Scattered Clouds
10:34 PM -7.6 °F - -14.8 °F 71% 29.85 in 10.0 mi Calm Calm - N/A   Scattered Clouds
10:54 PM -7.6 °F - -13.0 °F 77% 29.85 in 10.0 mi Calm Calm - N/A   Scattered Clouds
11:12 PM -7.6 °F - -14.8 °F 71% 29.85 in 10.0 mi Calm Calm - N/A   Scattered Clouds
11:33 PM -11.2 °F - -18.4 °F 70% 29.85 in 10.0 mi Calm Calm - N/A   Scattered Clouds
11:54 PM -7.6 °F - -13.0 °F 77% 29.86 in 10.0 mi Calm Calm - N/A   Scattered Clouds